Location: Bullenkuhlen
(53.7689°N, 9.7495°E)
Time: 11:58:12
(UTC+00:00)

Cosmos 1666 Rocket - Pass Details

Date: 09 April 2020
Orbit: 605 x 632 km, 82.5° (Epoch: 27 May)

Event Time Altitude Azimuth Distance (km) Brightness Sun altitude
Rises 22:02:30 0° 352° (N) 2,880 8.2 -26.0°
Reaches altitude 10° 22:04:48 10° 358° (N) 1,974 7.0 -26.1°
Enters shadow 22:08:19 43° 43° (NE) 868 4.4 -26.3°
